View from above orbital plane
|
View from above satellite
|
Ground track
|
The orbit data is extracted from the following two-line orbital elements,
1 46087U 20055BN 21063.39260556 .00019255 00000-0 21321-3 0 9999
2 46087 53.0085 350.7525 0010387 233.2378 126.7682 15.62989486 37259
Epoch (UTC): | 04 March 2021 09:25:21 |
Eccentricity: | 0.0010387 |
inclination: | 53.0085° |
perigee height: | 372 km |
apogee height: | 386 km |
right ascension of ascending node: | 350.7525° |
argument of perigee: | 233.2378° |
revolutions per day: | 15.62989486 |
mean anomaly at epoch: | 126.7682° |
orbit number at epoch: | 3725 |
The dashed part of the orbit path shows where the satellite is in the earth's shadow,
|
|